EW7168 Weather Reports


Display with metric or nautical units.
time (UTC)temp
F
wind
direction
speed
MPH
gust
MPH
rain 1hr
in
rain 24hr
in
rain mn
in
humidity
%
barometer
mb
20221204020054 37 0 0.0 0.0 0.00 0.00 0.00 51 1019.0
20221204014604 38 0 0.0 1.0 0.00 0.00 0.00 48 1019.0
20221204013102 38 0 0.0 3.0 0.00 0.00 0.00 48 1019.1
20221204011551 39 0 0.0 0.0 0.00 0.00 0.00 46 1019.0
20221204010130 40 0 0.0 0.0 0.00 0.00 0.00 44 1019.1
20221204004557 40 0 0.0 0.0 0.00 0.00 0.00 44 1018.9
20221204003058 41 0 1.0 3.0 0.00 0.00 0.00 43 1018.7
20221204001604 43 0 0.0 1.0 0.00 0.00 0.00 40 1018.5
20221204000100 44 0 0.0 3.0 0.00 0.00 0.00 38 1018.6
20221203234559 45 290 1.0 2.0 0.00 0.00 0.00 36 1018.5
20221203233111 47 53 0.0 2.0 0.00 0.00 0.00 33 1018.5
20221203231603 48 0 0.0 2.0 0.00 0.00 0.00 32 1018.2
20221203230107 49 0 0.0 4.0 0.00 0.00 0.00 31 1018.0
20221203224554 50 43 1.0 4.0 0.00 0.00 0.00 30 1018.1
20221203223107 50 69 3.0 6.0 0.00 0.00 0.00 29 1018.0
20221203221600 51 46 3.0 7.0 0.00 0.00 0.00 28 1018.0
20221203220103 51 83 3.0 8.0 0.00 0.00 0.00 28 1018.0
20221203214555 52 82 2.0 8.0 0.00 0.00 0.00 27 1018.1
20221203213112 53 28 5.0 10.0 0.00 0.00 0.00 26 1018.1
20221203211558 53 99 3.0 10.0 0.00 0.00 0.00 26 1018.3
20221203210056 55 109 2.0 6.0 0.00 0.00 0.00 26 1018.5
20221203204603 55 32 3.0 6.0 0.00 0.00 0.00 24 1018.7
20221203203102 55 0 0.0 7.0 0.00 0.00 0.00 25 1018.7
20221203201600 52 0 2.0 6.0 0.00 0.00 0.00 23 1018.8
20221203200059 50 89 1.0 4.0 0.00 0.00 0.00 22 1019.0
20221203194604 49 345 1.0 4.0 0.00 0.00 0.00 22 1019.4
20221203193100 48 44 1.0 3.0 0.00 0.00 0.00 24 1019.5
20221203191604 47 352 1.0 4.0 0.00 0.00 0.00 26 1019.7
20221203190059 45 0 1.0 4.0 0.00 0.00 0.00 28 1020.1
20221203184609 44 48 2.0 5.0 0.00 0.00 0.00 30 1020.1
20221203183102 43 54 1.0 4.0 0.00 0.00 0.00 32 1020.6
20221203181600 41 314 2.0 4.0 0.00 0.00 0.00 35 1021.0
20221203180102 39 24 1.0 5.0 0.00 0.00 0.00 38 1021.1
20221203174615 37 28 2.0 6.0 0.00 0.00 0.00 40 1021.3
20221203173102 35 14 1.0 4.0 0.00 0.00 0.00 43 1021.7
20221203171558 34 336 1.0 4.0 0.00 0.00 0.00 46 1021.9
20221203170103 31 0 1.0 3.0 0.00 0.00 0.00 50 1021.9
20221203164600 29 0 0.0 3.0 0.00 0.00 0.00 50 1021.9
20221203163120 28 219 1.0 5.0 0.00 0.00 0.00 51 1022.1
20221203161559 26 220 0.0 3.0 0.00 0.00 0.00 55 1022.2
20221203160105 24 223 1.0 4.0 0.00 0.00 0.00 57 1022.6
20221203154603 23 279 2.0 4.0 0.00 0.00 0.00 59 1022.7
20221203153105 21 227 2.0 4.0 0.00 0.00 0.00 62 1022.9
20221203151559 20 287 1.0 4.0 0.00 0.00 0.00 65 1023.0
20221203150102 17 0 0.0 0.0 0.00 0.00 0.00 73 1023.2
20221203144608 16 0 0.0 0.0 0.00 0.00 0.00 74 1023.4
20221203143101 15 0 0.0 0.0 0.00 0.00 0.00 76 1023.6
20221203141605 14 0 0.0 0.0 0.00 0.00 0.00 77 1023.9
20221203140103 13 0 0.0 0.0 0.00 0.00 0.00 76 1023.5
20221203134606 13 0 0.0 0.0 0.00 0.00 0.00 76 1023.7
20221203133059 13 0 0.0 0.0 0.00 0.00 0.00 76 1023.5
20221203131602 13 0 0.0 0.0 0.00 0.00 0.00 77 1023.3
20221203130058 13 0 0.0 0.0 0.00 0.00 0.00 76 1022.9
20221203124559 13 0 0.0 0.0 0.00 0.00 0.00 76 1023.1
20221203123102 13 0 0.0 0.0 0.00 0.00 0.00 75 1023.0
20221203121555 13 0 0.0 0.0 0.00 0.00 0.00 74 1022.8
20221203120105 14 0 0.0 0.0 0.00 0.00 0.00 73 1022.6
20221203114559 14 0 0.0 0.0 0.00 0.00 0.00 72 1022.6
20221203113057 14 0 0.0 0.0 0.00 0.00 0.00 72 1022.3
20221203111603 15 0 0.0 0.0 0.00 0.00 0.00 71 1022.2
20221203110100 15 0 0.0 0.0 0.00 0.00 0.00 70 1022.4
20221203104600 15 0 0.0 0.0 0.00 0.00 0.00 70 1022.3
20221203103114 15 0 0.0 0.0 0.00 0.00 0.00 70 1022.1
20221203101618 16 0 0.0 0.0 0.00 0.00 0.00 69 1022.1
20221203100112 16 0 0.0 3.0 0.00 0.00 0.00 69 1022.2
20221203094604 16 269 1.0 4.0 0.00 0.00 0.00 67 1021.9
20221203093108 16 0 0.0 2.0 0.00 0.00 0.00 66 1021.9
20221203091606 17 0 0.0 0.0 0.00 0.00 0.00 64 1021.9
20221203090106 17 273 0.0 0.0 0.00 0.00 0.00 64 1022.0
20221203084605 17 0 0.0 0.0 0.00 0.00 0.00 62 1021.9
20221203083109 17 0 0.0 0.0 0.00 0.00 0.00 61 1021.9
20221203081602 18 274 0.0 1.0 0.00 0.00 0.00 60 1021.9
20221203080059 18 0 0.0 3.0 0.00 0.00 0.00 60 1021.9
20221203074608 19 0 0.0 3.0 0.00 0.00 0.00 59 1021.8
20221203073113 19 0 0.0 0.0 0.00 0.00 0.00 59 1021.6
20221203071600 20 0 0.0 0.0 0.00 0.00 0.00 56 1021.8
20221203070102 20 0 0.0 0.0 0.00 0.00 0.00 54 1021.5
20221203064605 21 0 0.0 0.0 0.00 0.00 0.00 52 1021.7
20221203063106 22 0 0.0 0.0 0.00 0.00 0.00 50 1021.7
20221203061600 23 62 1.0 4.0 0.00 0.00 0.00 47 1021.9
20221203060109 23 0 0.0 6.0 0.00 0.00 0.00 47 1021.6
20221203054601 24 0 0.0 4.0 0.00 0.00 0.00 46 1021.4
20221203053055 24 11 2.0 3.0 0.00 0.00 0.00 45 1021.2
20221203051600 25 53 3.0 7.0 0.00 0.00 0.00 44 1021.1
20221203050101 25 80 4.0 11.0 0.00 0.00 0.00 43 1021.0
20221203044603 26 97 3.0 9.0 0.00 0.00 0.00 43 1020.8
20221203043103 26 123 2.0 11.0 0.00 0.00 0.00 43 1020.5
20221203041607 27 113 5.0 11.0 0.00 0.00 0.00 43 1020.4
20221203040055 28 74 2.0 4.0 0.00 0.00 0.00 46 1020.3
20221203034607 28 129 0.0 3.0 0.00 0.00 0.00 46 1020.2
20221203033056 28 0 0.0 2.0 0.00 0.00 0.00 47 1020.1
20221203031554 29 0 0.0 3.0 0.00 0.00 0.00 46 1019.9
20221203030109 29 198 3.0 7.0 0.00 0.00 0.00 46 1019.5
20221203024600 30 213 2.0 5.0 0.00 0.00 0.00 45 1019.6
20221203023114 30 206 1.0 4.0 0.00 0.00 0.00 45 1019.4
20221203021558 31 173 1.0 4.0 0.00 0.00 0.00 44 1019.2